Regional Weather Roundup
Issued by NWS

Home | Current Version | Previous Version | Graphics & Text | Print | Product List | Glossary On
Versions: 1 2 3 4 5 6 7 8 9 10 11 12 13 14 15 16 17 18 19 20 21 22 23 24 25 26 27 28 29 30 31 32 33 34 35 36 37 38 39 40 41 42 43 44 45 46 47 48 49 50
362
ASUS43 KDTX 162201
RWRMI
MICHIGAN HOURLY REGIONAL WEATHER ROUNDUP
NATIONAL WEATHER SERVICE DETROIT/PONTIAC MI
500 PM EST SAT DEC 16 2017

NOTE: "FAIR" INDICATES FEW OR NO CLOUDS BELOW 12,000 FEET WITH NO
SIGNIFICANT WEATHER AND/OR OBSTRUCTION TO VISIBILITY.

MIZ047>049-052>055-059>063-066>070-074>076-081>083-162300-
SOUTHEAST LOWER MICHIGAN

CITY           SKY/WX    TMP DP  RH WIND       PRES   REMARKS
ADRIAN         CLEAR     36  27  69 SW3       30.03R
ALMA           CLOUDY    24  21  87 NE8       30.08R WCI  15
ANN ARBOR      CLOUDY    29  23  78 NE10      30.04R WCI  20
BAD AXE        CLOUDY    23  17  80 NE7       30.11R WCI  14
CARO           CLOUDY    24  21  86 CALM      30.09R
DETROIT CITY   CLOUDY    27  20  75 NE8       30.08R WCI  19
DETROIT        CLOUDY    31  23  72 NE10      30.07R WCI  22
FLINT          CLOUDY    25  18  74 E9        30.07R WCI  15
GROSSE ILE     CLOUDY    28  24  84 NE12G17   30.05R WCI  18
HILLSDALE      CLEAR     36  27  69 CALM      29.99R
HOWELL         CLOUDY    28  23  83 NE8       30.04R WCI  19

CITY           SKY/WX    TMP DP  RH WIND       PRES   REMARKS
JACKSON        CLOUDY    34  26  72 N10       30.01R WCI  26
LAMBERTVILLE   CLEAR     37  28  67 CALM      30.03R
LANSING        CLOUDY    26  21  81 E10       30.04R WCI  16
LAPEER         CLOUDY    25  20  82 NE6       30.07R WCI  18
MASON          CLOUDY    29  22  75 NE8       30.03R WCI  21
MONROE         CLEAR     29  24  82 NE5       30.05R WCI  24
MT. CLEMENS    LGT SNOW  27  23  86 NE6       30.07R FOG     WCI  20
PONTIAC        CLOUDY    25  19  78 E7        30.05R WCI  17
PORT HOPE        N/A     23  17  78 NE10      30.11R WCI  12
PORT HURON     CLOUDY    25  18  74 E7        30.09R WCI  17
TRI CITIES     CLOUDY    25  21  85 E7        30.10R WCI  17
MIDLAND        CLOUDY    25  19  80 NE6       30.09R WCI  18
TROY           CLOUDY    28  21  78 NE6       30.08R WCI  21
SAGINAW HB     CLOUDY    25  21  86 NE6       30.09R WCI  18
$$
MIZ043>046-050>051-056>058-064>065-071>073-077>080-162300-
SOUTHWEST LOWER MICHIGAN

CITY           SKY/WX    TMP DP  RH WIND       PRES   REMARKS
BATTLE CREEK   MOCLDY    37  28  70 CALM      29.99R
BENTON HARBOR  CLEAR     41  25  53 E5        29.97R
BIG RAPIDS     CLOUDY    23  18  80 E8        30.04R WCI  14
COLDWATER      CLEAR     36  26  67 CALM      29.99R
HOLLAND        CLOUDY    29  22  75 E9        30.01R WCI  20
GRAND RAPIDS   MOCLDY    25  20  81 E15       30.02R WCI  13
IONIA          CLOUDY    25  20  79 NE10      30.04R WCI  15
KALAMAZOO      CLEAR     38  26  62 SE5       29.99R WCI  34
LUDINGTON      CLOUDY    26  18  73 E10       30.03R WCI  16
MARSHALL       CLOUDY    37  26  64 S3        29.99R
MOUNT PLEASANT CLOUDY    25  19  79 E8        30.07R WCI  16
MUSKEGON       CLOUDY    28  20  71 E10       30.02R WCI  19
SOUTH HAVEN    CLEAR     40  28  64 CALM      29.97R
$$
MIZ016>042-162300-
NORTHERN LOWER MICHIGAN

CITY           SKY/WX    TMP DP  RH WIND       PRES   REMARKS
ALPENA         CLOUDY    13   9  84 N7        30.15R WCI   3
BEAVER ISLAND  CLOUDY    14  10  83 E9        30.13R WCI   2
BELLAIRE       CLOUDY    19  14  81 NE6       30.12R WCI  11
CADILLAC       CLOUDY    21  15  76 SE8       30.02R WCI  12
CHARLEVOIX     CLOUDY    15  10  78 NE10      30.15R WCI   3
FRANKFORT      CLOUDY    26  17  70 E6        30.06R WCI  19
GAYLORD        CLOUDY    13   8  81 NE5       30.06R WCI   5
GRAYLING       CLOUDY    17  11  77 NE8       30.07R WCI   6
HARBOR SPRINGS CLOUDY    12   7  79 NE8       30.13R WCI   1
HOUGHTON LAKE  CLOUDY    21  13  71 E6        30.06R WCI  13
MANISTEE       CLOUDY    26  19  74 E13       30.04R WCI  15
OSCODA         CLOUDY    18  11  73 N5        30.13R WCI  11
PELLSTON       CLOUDY    10   7  85 NE7       30.16R WCI   0
ROGERS CITY    LGT SNOW  13   9  85 N5        30.16R WCI   5
TRAVERSE CITY  CLOUDY    23  14  68 E8        30.07R WCI  14
$$
MIZ007>008-015-162300-
EASTERN UPPER MICHIGAN

CITY           SKY/WX    TMP DP  RH WIND       PRES   REMARKS
KINROSS        CLOUDY     0 -10  63 CALM      30.17R
MACKINAC ISLAN PTCLDY     8   0  68 NE6       30.16R WCI  -2
NEWBERRY       CLOUDY     6   4  91 E5        30.14R WCI  -3
S. S. MARIE    CLOUDY     2  -9  60 S3        30.17R
MUNISING         N/A     15  10  80 SE7       30.13R WCI   5
$$
MIZ004>006-011>014-085-162300-
CENTRAL UPPER MICHIGAN

CITY           SKY/WX    TMP DP  RH WIND       PRES   REMARKS
MANISTIQUE     CLOUDY    13   5  70 E6        30.13R WCI   4
ESCANABA       FLURRIES  18  11  74 NE8       30.11R WCI   8
MENOMINEE      CLOUDY    24  20  84 N6        30.07R WCI  17
SAWYER-GWINN   PTCLDY    18   9  68 E6        30.05R WCI   9
$$
MIZ001>003-009>011-084-162300-
WESTERN UPPER MICHIGAN

CITY           SKY/WX    TMP DP  RH WIND       PRES   REMARKS
IRON MOUNTAIN  CLOUDY    20  12  71 SE6       30.04R WCI  12
HOUGHTON       LGT SNOW  19  13  77 NE7       30.05R WCI  10
COPPER HARBOR    N/A     19  14  81 SE7       30.11R WCI  10
IRONWOOD       FLURRIES  20  12  71 E5        30.02R WCI  13
$$

ABBREVIATIONS USED IN REMARKS
   TC - TEMPERATURE IN CELSIUS
  WCI - WIND CHILL INDEX
   HX - HEAT INDEX
  VSB - VISIBILITY





USA.gov is the U.S. government's official web portal to all federal, state and local government web resources and services.